Location: B?ezina
(49.8085°N, 13.6013°E)
Time: 06:47:28
(UTC+00:00)

Timation 1 Rocket - Pass Details

Date: 19 May 2025
Orbit: 895 x 909 km, 70.0° (Epoch: 22 June)

Event Time Altitude Azimuth Distance (km) Brightness Sun altitude
Exits shadow 21:47:18 24° 196° (SSW) 1,761 5.4 -18.3°
Maximum altitude 21:50:58 72° 117° (ESE) 948 4.3 -18.5°
Drops below altitude 10° 21:56:56 10° 34° (NE) 2,596 7.3 -18.7°
Sets 21:59:27 0° 32° (NNE) 3,543 8.1 -18.8°
